Location: La Bastide
(43.1661°N, 1.2755°E)
Time: 05:32:26
(UTC+00:00)

Cosmos 1953 Rocket - Pass Details

Date: 22 March 2026
Orbit: 599 x 626 km, 82.5° (Epoch: 15 April)

Event Time Altitude Azimuth Distance (km) Brightness Sun altitude
Rises 03:50:46 0° 10° (N) 2,898 7.5 -22.8°
Reaches altitude 10° 03:53:58 10° 34° (NE) 1,993 6.9 -22.3°
Maximum altitude 03:56:25 15° 68° (ENE) 1,710 6.8 -21.9°
Drops below altitude 10° 03:58:52 10° 102° (ESE) 1,992 6.9 -21.4°
Sets 04:02:03 0° 127° (SE) 2,896 7.4 -20.9°
